Terminal Aerodrome Forecast
Issued by NWS Portland, ME

Home | Current Version | Previous Version | Text Only | Print | Product List | Glossary On
Versions: 1 2 3 4 5 6 7 8 9 10 11 12 13 14 15 16 17 18 19 20 21 22 23
000
FTUS41 KGYX 010500
TAFPWM
TAF
KPWM 010526Z 0106/0206 VRB03KT P6SM SCT100
     FM011200 17005KT P6SM SCT250
     FM011700 18010KT P6SM SCT045 SCT080
     FM020000 19004KT P6SM SCT120 BKN200=

USA.gov is the U.S. government's official web portal to all federal, state and local government web resources and services.